Location: Gro� Glienicke
(52.4675°N, 13.1079°E)
Time: 18:09:03
(UTC+00:00)

CZ-2D R/B - Pass Details

Date: 06 July 2020
Orbit: 792 x 844 km, 98.7° (Epoch: 13 August)

Event Time Altitude Azimuth Distance (km) Brightness Sun altitude
Rises 23:45:57 0° 23° (NNE) 3,330 6.9 -14.6°
Reaches altitude 10° 23:48:43 10° 37° (NE) 2,401 5.5 -14.6°
Maximum altitude 23:53:01 25° 92° (E) 1,614 3.8 -14.5°
Drops below altitude 10° 23:57:20 10° 146° (SE) 2,415 4.2 -14.3°
Enters shadow 23:57:20 10° 146° (SE) 2,417 4.2 -14.3°
